Regional Weather Roundup
Issued by NWS Little Rock, AR

Home | Current Version | Previous Version | Text Only | Print | Product List | Glossary On
Versions: 1 2 3 4 5 6 7 8 9 10 11 12 13 14 15 16 17 18 19 20 21 22 23 24 25 26 27 28 29 30 31 32 33 34 35 36 37 38 39 40 41 42 43 44 45 46 47 48 49 50
000
ASUS44 KLZK 101705
RWRLZK

WEATHER ROUNDUP FOR ARKANSAS
NATIONAL WEATHER SERVICE LITTLE ROCK AR
1100 AM CST SAT DEC 10 2016

NOTE: "FAIR" INDICATES FEW OR NO CLOUDS BELOW 12,000 FEET WITH NO
SIGNIFICANT WEATHER AND/OR OBSTRUCTIONS TO VISIBILITY.

ARZ001-003-010-029-101800-
NORTHWEST ARKANSAS

CITY           SKY/WX    TMP DP  RH WIND       PRES   REMARKS
FAYETTEVILLE   PTSUNNY   42  12  29 S16       30.40F
FORT SMITH     CLOUDY    40  20  44 E9        30.46F
HARRISON       CLOUDY    37  19  48 S12       30.42F
BENTONVILLE    CLOUDY    45  12  26 S10G18    30.40F
ROGERS         CLOUDY    46  12  25 S14       30.39F
SILOAM SPGS    CLOUDY    41  12  30 S13       30.39F
HIGHFILL       CLOUDY    43  12  28 S16       30.38F
SPRINGDALE     MOSUNNY   45  12  26 S9        30.41F
$$

ARZ004-005-016-101800-
NORTH CENTRAL ARKANSAS

CITY           SKY/WX    TMP DP  RH WIND       PRES   REMARKS
BATESVILLE     CLOUDY    34  21  60 E6        30.57F WCI  29
FLIPPIN        CLOUDY    34  19  55 SE7       30.45F WCI  28
MTN HOME       CLOUDY    32  19  58 S10       30.46F WCI  24
$$

ARZ040-041-101800-
WEST CENTRAL ARKANSAS

CITY           SKY/WX    TMP DP  RH WIND       PRES   REMARKS
MENA           CLOUDY    43  23  45 SE3       30.47F
MOUNT IDA      CLOUDY    38  21  50 VRB6      30.48F
$$

ARZ009-017-025-026-028-101800-
NORTHEAST ARKANSAS

CITY           SKY/WX    TMP DP  RH WIND       PRES   REMARKS
CORNING        FAIR      34  21  60 SE9       30.58F WCI  26
JONESBORO      SUNNY     33  21  61 SE8       30.58F WCI  26
NEWPORT        MOSUNNY   35  22  58 SE8       30.58F WCI  29
WALNUT RIDGE   SUNNY     34  19  55 SE7       30.57F WCI  28
BLYTHEVILLE    SUNNY     37  17  44 SE3       30.59F
$$

ARZ022-023-033-042-044-101800-
CENTRAL ARKANSAS

CITY           SKY/WX    TMP DP  RH WIND       PRES   REMARKS
LITTLE ROCK    PTSUNNY   35  25  66 S7        30.57F WCI  29
JACKSONVILLE   CLOUDY    35  23  61 SE8       30.55F WCI  29
SEARCY         CLOUDY    35  25  66 SE6       30.59F WCI  30
HOT SPRINGS    CLOUDY    38  22  52 SE6       30.53F
RUSSELLVILLE   CLOUDY    35  23  61 VRB6      30.52F WCI  30
CLINTON        CLOUDY    34  21  60 S5        30.54F WCI  30
$$

ARZ036-101800-
EAST ARKANSAS

CITY           SKY/WX    TMP DP  RH WIND       PRES   REMARKS
WEST MEMPHIS   SUNNY     37  20  50 VRB3      30.57F
$$

ARZ050-053-066-070-073-101800-
SOUTHWEST ARKANSAS

CITY           SKY/WX    TMP DP  RH WIND       PRES   REMARKS
ARKADELPHIA    CLOUDY    38  24  57 S6        30.56F
CAMDEN         PTSUNNY   43  18  36 S5        30.57F
TEXARKANA      CLOUDY    39  22  50 SE9       30.53F
EL DORADO      SUNNY     40  22  48 SE6       30.56F
DE QUEEN       CLOUDY    39  27  62 SE7       30.51F
$$

ARZ056-057-069-101800-
SOUTHEAST ARKANSAS

CITY           SKY/WX    TMP DP  RH WIND       PRES   REMARKS
PINE BLUFF     FLURRIES  37  26  64 E5        30.57F
STUTTGART      CLOUDY    36  21  55 SE5       30.58F
MONTICELLO     CLOUDY    39  23  52 SE6       30.57F

$$





USA.gov is the U.S. government's official web portal to all federal, state and local government web resources and services.